ENRA Weather Reports


time (UTC)temp
C
wind
direction
speed
KPH
gust
KPH
rain 1hr
cm
rain 24hr
cm
rain mn
cm
humidity
%
barometer
mb
20260508090307 8 140 9.7 0.0 0.00 0.00 0.00 49 1023.0
20260508083307 5 90 8.0 0.0 0.00 0.00 0.00 60 1023.0
20260508073307 6 0 3.2 0.0 0.00 0.00 0.00 65 1023.0
20260508070306 5 90 4.8 0.0 0.00 0.00 0.00 75 1023.0
20260508063306 2 0 3.2 0.0 0.00 0.00 0.00 86 1023.0
20260508060306 1 130 4.8 0.0 0.00 0.00 0.00 93 1023.0
20260508053307 1 130 4.8 0.0 0.00 0.00 0.00 93 1023.0
20260508050306 0 120 4.8 0.0 0.00 0.00 0.00 10 1023.0
20260508043306 0 0 0.0 0.0 0.00 0.00 0.00 10 1023.0
20260508040307 0 0 0.0 0.0 0.00 0.00 0.00 93 1023.0
20260508030306 0 150 4.8 0.0 0.00 0.00 0.00 10 1022.0
20260508023307 0 0 1.6 0.0 0.00 0.00 0.00 10 1022.0
20260508020307 0 140 3.2 0.0 0.00 0.00 0.00 10 1022.0
20260508013307 0 150 3.2 0.0 0.00 0.00 0.00 10 1022.0
20260508010306 0 60 3.2 0.0 0.00 0.00 0.00 10 1022.0
20260508003306 0 0 1.6 0.0 0.00 0.00 0.00 10 1021.0
20260508000306 0 0 0.0 0.0 0.00 0.00 0.00 10 1021.0
20260507233306 0 0 3.2 0.0 0.00 0.00 0.00 10 1021.0
20260507230306 0 0 3.2 0.0 0.00 0.00 0.00 10 1021.0
20260507223306 0 0 3.2 0.0 0.00 0.00 0.00 10 1020.0
20260507220306 0 140 4.8 0.0 0.00 0.00 0.00 10 1020.0
20260507213306 0 0 3.2 0.0 0.00 0.00 0.00 10 1020.0
20260507210307 0 140 4.8 0.0 0.00 0.00 0.00 10 1020.0
20260507203307 1 140 8.0 0.0 0.00 0.00 0.00 93 1019.0
20260507200305 1 120 4.8 0.0 0.00 0.00 0.00 93 1019.0
20260507193307 2 0 1.6 0.0 0.00 0.00 0.00 93 1019.0
20260507190307 2 330 4.8 0.0 0.00 0.00 0.00 86 1019.0
20260507183307 2 0 0.0 0.0 0.00 0.00 0.00 86 1018.0
20260507180310 2 0 1.6 0.0 0.00 0.00 0.00 93 1018.0
20260507173308 3 160 4.8 0.0 0.00 0.00 0.00 86 1018.0
20260507170308 3 200 4.8 0.0 0.00 0.00 0.00 86 1018.0
20260507163307 3 0 0.0 0.0 0.00 0.00 0.00 86 1017.0
20260507160308 3 230 4.8 0.0 0.00 0.00 0.00 80 1018.0
20260507153308 2 0 4.8 0.0 0.00 0.00 0.00 93 1017.0
20260507150308 5 220 9.7 32.2 0.00 0.00 0.00 65 1017.0
20260507143307 6 240 3.2 0.0 0.00 0.00 0.00 65 1016.0
20260507140308 6 340 4.8 0.0 0.00 0.00 0.00 65 1016.0
20260507133307 5 0 3.2 0.0 0.00 0.00 0.00 70 1016.0
20260507130307 5 0 3.2 0.0 0.00 0.00 0.00 70 1016.0
20260507123308 5 0 3.2 0.0 0.00 0.00 0.00 75 1016.0
20260507120307 2 350 12.9 0.0 0.00 0.00 0.00 86 1016.0
20260507113308 2 270 19.3 0.0 0.00 0.00 0.00 86 1016.0
20260507110307 6 240 9.7 0.0 0.00 0.00 0.00 56 1015.0
20260507103307 6 270 11.3 0.0 0.00 0.00 0.00 56 1015.0
20260507100308 6 360 8.0 0.0 0.00 0.00 0.00 52 1015.0
20260507093307 5 290 11.3 0.0 0.00 0.00 0.00 60 1015.0